Regional Weather Roundup
Issued by NWS

Home | Current Version | Previous Version | Text Only | Print | Product List | Glossary Off
Versions: 1 2 3 4 5 6 7 8 9 10 11 12 13 14 15 16 17 18 19 20 21 22 23 24 25 26 27 28 29 30 31 32 33 34 35 36 37 38 39 40 41 42 43 44 45 46 47 48 49 50

087
ASUS44 KJAN 242003
RWRMS

MISSISSIPPI HOURLY WEATHER ROUNDUP
NATIONAL WEATHER SERVICE JACKSON MS
200 PM CST SAT JAN 24 2015

NOTE: "FAIR: INDICATES FEW OR NO CLOUDS BELOW 12,000 FEET WITH NO
SIGNIFICANT WEATHER AND/OR OBSTRUCTIONS TO VISIBILITY.

MSZ001>002-007>008-010>013-018>021-025>028-034>036-242100-
NORTHWEST MISSISSIPPI

CITY           SKY/WX    TMP DP  RH WIND       PRES   REMARKS
CLARKSDALE     FAIR      54  37  54 SW10      29.98F
CLEVELAND      FAIR      53  38  57 SW12      30.00F
GREENWOOD      SUNNY     52  34  50 VRB7      30.02F
GREENVILLE     SUNNY     55  36  48 SW13      30.00F
GRENADA        FAIR      52  32  46 SW9G18    30.01F
OLIVE BRANCH   SUNNY     52  32  46 SW10G17   29.95F
OXFORD         FAIR      50  27  40 W13G20    30.00F
TUNICA         CLEAR     54  37  54 S10       29.97F
$$

MSZ003>006-009-014>017-022>024-029>033-037>039-242100-
NORTHEAST MISSISSIPPI

CITY           SKY/WX    TMP DP  RH WIND       PRES   REMARKS
COLUMBUS AFB   SUNNY     51  31  45 W10       30.02F
CORINTH        FAIR      52  32  46 W12G21    29.94F
GOLDN TRIANGLE SUNNY     52  34  50 W6        30.02F
STARKVILLE     FAIR      52  32  46 W12       30.03S
TUPELO         SUNNY     53  29  39 MISG      29.98F
$$

MSZ040-058-242100-
CENTRAL MISSISSIPPI

CITY           SKY/WX    TMP DP  RH WIND       PRES   REMARKS
JACKSON INTL   SUNNY     54  30  40 W10       30.05F
JACKSON HAWKNS SUNNY     53  31  42 VRB3      30.05F
MERIDIAN KEY   SUNNY     53  29  39 W10G17    30.05F
MERIDIAN NAS   SUNNY     53  28  38 NW12      30.05F
RAYMOND        FAIR      54  48  82 W13       30.06F
VICKSBURG      SUNNY     56  33  42 W12       30.07F
$$

MSZ059>079-242100-
SOUTH MISSISSIPPI

CITY           SKY/WX    TMP DP  RH WIND       PRES   REMARKS
BROOKHAVEN     FAIR      54  34  47 W6        30.08F
HATTIESBURG    SUNNY     54  33  45 NW10G18   30.08F
MCCOMB         SUNNY     55  30  38 NW8       30.08F
NATCHEZ        SUNNY     54  36  50 SW9       30.09F
PINE BELT      SUNNY     54  32  43 NW8       30.08F
$$

MSZ080>082-242100-
COASTAL MISSISSIPPI

CITY           SKY/WX    TMP DP  RH WIND       PRES   REMARKS
BAY ST LOUIS   SUNNY     55  27  33 N7        30.09F
BILOXI         SUNNY     57  33  39 NW12      30.07F
PASCAGOULA     SUNNY     56  31  38 NW5       30.06F
GULFPORT       SUNNY     55  33  43 NW10      30.07F
$$



USA.gov is the U.S. government's official web portal to all federal, state and local government web resources and services.